Location: ?
(35.4996°N, 139.3166°E)
Time: 04:13:54
(UTC+00:00)

IRS-1D - Pass Details

Date: 18 April 2024
Orbit: 739 x 813 km, 98.8° (Epoch: 23 May)

Event Time Altitude Azimuth Distance (km) Brightness Sun altitude
Rises 18:02:46 0° 17° (NNE) 3,253 7.5 -23.5°
Reaches altitude 10° 18:05:06 10° 21° (NNE) 2,334 6.7 -23.1°
Maximum altitude 18:10:12 60° 102° (ESE) 899 4.0 -22.2°
Enters shadow 18:13:34 22° 176° (S) 1,691 5.0 -21.7°
